Other Surface Observations
Issued by NWS Jacksonville, FL

Home | Current Version | Previous Version | Text Only | Print | Product List | Glossary On
Versions: 1 2 3 4 5 6 7 8 9 10 11 12 13 14 15 16 17 18 19 20 21 22 23 24 25 26 27 28 29 30 31 32 33 34 35 36 37 38 39 40 41 42 43 44 45 46 47 48 49 50
000
SXUS52 KJAX 261110
OSOJAX
OTHER SURFACE OBSERVATIONS
NATIONAL WEATHER SERVICE JACKSONVILLE FL
700 AM EDT SAT JUL 26 2014

FLZ020>025-030>033-035>038-040-261200-
...FLORIDA...

CITY           SKY/WX    TMP DP  RH WIND       PRES   REMARKS
CECIL FIELD    NOT AVBL
HERLONG FIELD  NOT AVBL
FERNANDINA BCH NOT AVBL
LAKE CITY      FAIR      72  72 100 MISG      30.06R FOG
JUNIPER SPGS   NOT AVBL
BUNNELL        SUNNY     73  72  94 CALM      30.07R FOG
KEYSTONE HGTS  FAIR      73  73 100 CALM      30.07S
$$

GAZ132>136-149>154-162>166-261200-
...GEORGIA...

CITY           SKY/WX    TMP DP  RH WIND       PRES   REMARKS
JESUP          NOT AVBL
HOMERVILLE     FAIR      77  75  94 S3        30.05R
SWAINSBORO     FAIR      77  77 100 CALM      30.04R
CORDELE        NOT AVBL
$$

PLEASE NOTE:  THESE OBSERVATIONS ARE NOT QUALITY CONTROLLED AND MAY
NOT BE AVAILABLE AT ALL TIMES.
$$


USA.gov is the U.S. government's official web portal to all federal, state and local government web resources and services.